Location: Unspecified
(0.0000°N, 0.0000°E)
Time: 07:44:33
(UTC+00:00)

Vanguard 2 - Visible Passes

Search period start: 17 August 2017 00:00
Search period end: 27 August 2017 00:00
Orbit: 555 x 2938 km, 32.9° (Epoch: 16 August)

Date Brightness Start Highest point End Pass type
(mag) Time Alt. Az. Time Alt. Az. Time Alt. Az.
17 Aug 10.5 02:09:40 46° NNE 02:09:40 46° NNE 02:18:30 10° NE visible
17 Aug 10.9 04:11:05 20° WNW 04:16:35 24° NW 04:25:51 10° NNE visible
17 Aug 11.2 19:39:01 10° SSE 19:40:54 10° SSE 19:42:38 10° SSE visible
17 Aug 11.4 21:43:12 10° SSW 21:44:03 12° SSW 21:44:03 12° SSW visible
18 Aug 11.7 00:25:09 13° ENE 00:25:09 13° ENE 00:26:11 10° ENE visible
18 Aug 10.6 02:26:33 45° N 02:26:33 45° N 02:36:26 10° NE visible
18 Aug 11.1 04:27:57 12° WNW 04:35:31 18° NNW 04:43:06 10° N visible
18 Aug 11.1 19:54:50 10° S 19:59:42 14° SSE 19:59:42 14° SSE visible
18 Aug 11.5 22:00:55 10° SSW 22:01:07 11° SSW 22:01:07 11° SSW visible
19 Aug 11.5 00:41:58 19° NE 00:41:58 19° NE 00:44:44 10° NE visible
19 Aug 10.7 02:43:22 39° NNW 02:43:22 39° NNW 02:54:15 10° NNE visible
19 Aug 11.3 04:48:42 10° NW 04:54:45 13° NNW 04:59:58 10° N visible
19 Aug 11.0 20:11:51 10° S 20:16:48 17° SSE 20:16:48 17° SSE visible
20 Aug 11.3 00:58:45 24° NE 00:58:45 24° NE 01:03:03 10° NE visible
20 Aug 10.9 03:00:09 31° NNW 03:00:09 31° NNW 03:11:55 10° NNE visible
20 Aug 10.9 20:29:10 10° SSW 20:33:58 20° S 20:33:58 20° S visible
21 Aug 11.2 01:15:30 28° NNE 01:15:30 28° NNE 01:21:09 10° NE visible
21 Aug 11.1 03:16:54 24° NW 03:18:51 24° NNW 03:29:33 10° NNE visible
21 Aug 10.8 20:46:38 10° SSW 20:51:10 23° S 20:51:10 23° S visible
21 Aug11.923:30:48ENE23:30:48ENE22:52:36SWvisible
22 Aug 11.1 01:32:12 30° NNE 01:32:12 30° NNE 01:39:07 10° NE visible
22 Aug 11.3 03:33:36 17° NW 03:38:08 19° NNW 03:47:07 10° NNE visible
22 Aug 10.9 19:00:11 10° SSE 19:03:40 12° SSE 19:07:01 10° SE visible
22 Aug 10.8 21:04:16 10° SSW 21:08:27 25° SSW 21:08:27 25° SSW visible
23 Aug 11.1 01:48:52 30° N 01:48:52 30° N 01:56:59 10° NNE visible
23 Aug 11.5 03:50:16 11° NW 03:57:42 15° NNW 04:04:41 10° N visible
23 Aug 10.7 19:16:18 10° S 19:22:36 17° SE 19:24:21 16° SE visible
23 Aug 10.8 21:22:02 10° SW 21:25:48 25° SSW 21:25:48 25° SSW visible
24 Aug 11.8 00:04:07 12° NE 00:04:07 12° NE 00:04:55 10° NE visible
24 Aug 11.2 02:05:30 27° N 02:05:30 27° N 02:14:49 10° NNE visible
24 Aug 11.6 04:12:11 10° NW 04:17:32 12° NNW 04:22:20 10° N visible
24 Aug 10.5 19:33:17 10° SSW 19:41:16 24° SE 19:41:46 23° SE visible
24 Aug 10.9 21:39:59 10° SW 21:43:14 24° SW 21:43:14 24° SW visible
25 Aug 11.7 00:20:43 16° NE 00:20:43 16° NE 00:23:01 10° NE visible
25 Aug 11.3 02:22:07 23° NNW 02:22:07 23° NNW 02:32:38 10° NNE visible
25 Aug 11.6 04:34:26 10° NNW 04:37:31 11° N 04:40:23 10° N visible
25 Aug 10.2 19:50:37 10° SSW 19:59:16 32° SE 19:59:16 32° SE visible
25 Aug 11.0 21:58:06 10° SW 22:00:44 21° SW 22:00:44 21° SW visible
26 Aug 11.6 00:37:19 19° NNE 00:37:19 19° NNE 00:41:02 10° NE visible
26 Aug 11.4 02:38:42 19° NNW 02:40:30 19° NNW 02:50:34 10° NNE visible
26 Aug 11.6 04:54:55 10° NNW 04:57:32 11° N 05:00:00 10° N visible
26 Aug 9.9 20:08:10 10° SSW 20:16:52 43° SSE 20:16:52 43° SSE visible
26 Aug 11.2 22:16:29 10° WSW 22:18:21 17° WSW 22:18:21 17° WSW visible
